Location: El Manguito
(10.2358°N, 67.3634°W)
Time: 14:39:17
(UTC+00:00)

USA 215 - Pass Details

Date: 10 September 2024
Orbit: 1099 x 1108 km, 123.0° (Epoch: 25 September)

Event Time Altitude Azimuth Distance (km) Brightness Sun altitude
Rises 22:53:56 0° 56° (NE) 3,911 5.7 -6.0°
Reaches altitude 10° 22:56:46 10° 67° (ENE) 2,955 5.0 -6.7°
Maximum altitude 23:02:18 30° 125° (SE) 1,870 4.0 -8.1°
Drops below altitude 10° 23:07:50 10° 184° (S) 2,960 5.5 -9.4°
Sets 23:10:39 0° 194° (SSW) 3,919 6.3 -10.1°
